STARLINK-32171, 60332

Orbit data source: Space-Track

STARLINK-32171, 60332 is a payload satellite owned by SpaceX/Seattle (US) in LEO that was launched on Fri, 02 Aug 2024 UTC via an FALCON 9 launch vehicle from the Air Force Eastern Test Range (AFETR). Payload-class satellites include a variety of spacecraft equipped with specific instruments for various scientific and technological missions. These include communications satellites like Starlink; space stations such as the ISS; scientific satellites like the Hubble; Earth observation satellites from companies like Planet Labs, Umbra, and HawkEye 360; GPS; miniature CubeSats for education and research; and military/defense satellites.

Loading next visibility...
Identifier
60332, 2024-136D
Orbit
LEO
Last TLE update
15 hours ago
Origin
Manufacturer
SpaceX/Seattle
Mission
Operational Commercial Communications
Bus & Motor
STARLINK V2M, Unknown motor
Mass
730 kg wet, ~700 kg dry
Launch date (UTC)
2024-08-02 (9 months ago)
Launch vehicle
FALCON 9
Launch site
Air Force Eastern Test Range (AFETR)
Object type
Payload
Rocket body
Debris
Shape & HBR
Box + 2 Pan, 29 m
Radar Cross Section
33.884 m², Large (>1 m²)

Expand to show TLE details & history

TLE from 15 hours ago
0 STARLINK-32171
1 60332U 24136D   25132.88770761 -.00000531  00000-0 -58247-5 0  9999
2 60332  53.1628  32.6437 0001099  85.3232 274.7894 15.30192377 43611
Epoch: 2025-05-12T21:18Z
Definitive object data (Epoch: 2025-05-12T21:18:17.937Z)
Latitude
-0.00005°
Longitude
-157.82541°
Altitude
476.075 km
Speed
7.629 km/s
True Right ascension
02h 10m 34s
True Declination
0° 00' 00"
Sunlit
Object was in daylight at TLE epoch
Visualization TLE readout
Latitude
-17.44454°
Longitude
32.81192°
Altitude
480.304 km
Speed
7.625 km/s
Apparent Right ascension
12h 22m 16s
Apparent Declination
-37° 23' 24"
Sunlit
Object is in full shadow
Visualization observer readout
Local Sidereal Time
20:43:01
Azimuth
255.168° W
Elevation
-47.801°
Doppler factor
1
Orbital elements
Apogee altitude
476.247 km
Perigee altitude
474.741 km
Semi-major axis
6,853.631 km
Eccentricity
0.0001099
Inclination
53.1628°
RAAN
32.6437°
Arg. of periapsis
85.3232°
True anomaly
274.77685°
Mean anomaly
274.7894°
Eccentric anomaly
274.78313°
Mean motion
3.82527 °/min
BSTAR
-0.0000058247
Orbital period
94.11 mins
Loading maneuver chart data...
Loading SW <> Apogee altitude chart data...
Loading historical data...
Loading historical data...
Loading historical data...
Loading historical data...
Loading historical data...
Loading historical data...
Loading historical data...

STARLINK-32171 Visibility forecast

Observer location: undefined°, undefined°

Span
Click to sort rows by Start time (UTC) header in descending order
Start Az.
Max El. time (UTC)
Max El. Az.
Max El.
End time (UTC)
End Az.
6 mins2025-05-13 19:24:27.682Z204.119° SW2025-05-13 19:27:27.682Z145.302° SSE33.3°2025-05-13 19:30:27.682Z66.931° ENE
4 mins2025-05-13 21:04:27.682Z297.641° NW2025-05-13 21:05:27.682Z324.093° NNW24.485°2025-05-13 21:08:27.682Z27.785° NE
5 mins2025-05-14 02:00:27.682Z333.542° NNW2025-05-14 02:02:27.682Z26.35° NE31.741°2025-05-14 02:05:27.682Z99.325° ESE
4 mins2025-05-14 03:38:27.682Z273.437° WNW2025-05-14 03:40:27.682Z227.252° WSW23.247°2025-05-14 03:42:27.682Z183.204° SSW
|